Regional Weather Roundup
Issued by NWS

Home | Current Version | Previous Version | Graphics & Text | Print | Product List | Glossary Off
Versions: 1 2 3 4 5 6 7 8 9 10 11 12 13 14 15 16 17 18 19 20 21 22 23 24 25 26 27 28 29 30 31 32 33 34 35 36 37 38 39 40 41 42 43 44 45 46 47 48 49 50

000
ASUS43 KDMX 072108
RWRIA

WEATHER ROUNDUP FOR IOWA
NATIONAL WEATHER SERVICE DES MOINES IA
300 PM CST SUN FEB 07 2016

NOTE: "FAIR" INDICATES FEW OR NO CLOUDS BELOW 12,000 FEET WITH NO
SIGNIFICANT WEATHER AND/OR OBSTRUCTIONS TO VISIBILITY.

* - THESE STATIONS ARE NOT NWS STATIONS...THUS NOT UNDER NWS
QUALITY CONTROL.  THEY ALSO DO NOT REPORT WEATHER SUCH
AS PRECIPITATION OR FOG.

IAZ001>003-012>014-020>022-031>034-043>046-072200-
   NORTHWEST IOWA

CITY           SKY/WX    TMP DP  RH WIND       PRES   REMARKS
CARROLL *      PTSUNNY   37  28  70 NW25G33   29.85S WCI  26
CHEROKEE *     FLURRIES  34  32  93 W16G30    29.84S WCI  23
DENISON *      CLOUDY    37  28  70 NW24G32   29.86R WCI  26
LE MARS *      LGT SNOW  34  34 100 W24G35    29.87S WCI  21
ORANGE CITY *  CLOUDY    34  30  86 NW25G31   29.82S WCI  21
SHELDON *      MIX PCPN  34  30  86 W20       29.79R WCI  22
SIOUX CITY     LGT SNOW  36  30  79 NW23G31   29.88S WCI  24
SPENCER        CLOUDY    35  28  75 W28       29.78S WCI  22
STORM LAKE *     N/A     34  34 100 NW31G38   29.82S WCI  20
$$

IAZ055>058-069>071-079>083-090>094-072200-
   SOUTHWEST IOWA

CITY           SKY/WX    TMP DP  RH WIND       PRES   REMARKS
ATLANTIC *     CLOUDY    39  28  65 NW12G17   29.90S WCI  32
AUDUBON *      MOSUNNY   39  28  65 W12       29.88F WCI  32
CLARINDA *     PTSUNNY   48  27  43 W22G35    29.96F
COUNCIL BLFS * MOSUNNY   41  23  48 W21G28    29.92S
CRESTON *      MOSUNNY   41  27  56 W21G31    29.90F
HARLAN  *      MOSUNNY   39  27  60 W22       29.93S WCI  29
LAMONI         CLOUDY    45  27  49 W26G36    29.91F
RED OAK *      PTSUNNY   43  25  49 W16G29    29.93S
SHENANDOAH *   PTSUNNY   45  28  53 NW17G26   29.96F
$$

IAZ047>049-059>061-072>074-084-072200-
   CENTRAL IOWA

CITY           SKY/WX    TMP DP  RH WIND       PRES   REMARKS
AMES           SUNNY     40  26  57 W20G32    29.82F WCI  30
ANKENY *       SUNNY     43  28  56 W21       29.84F
BOONE *        PTSUNNY   39  27  60 W20G30    29.81S WCI  30
CHARITON *     SUNNY     43  27  52 W14G21    29.88S
DES MOINES     MOSUNNY   44  25  47 W23G30    29.85F
GRINNELL*      MOSUNNY   41  30  65 W18       29.83F
KNOXVILLE *    SUNNY     41  28  60 W15       29.85S
MARSHALLTOWN   SUNNY     39  28  64 W16G26    29.80S WCI  30
NEWTON *       MOSUNNY   41  30  65 W20G31    29.83F
PELLA *        PTSUNNY   41  27  56 W14       29.87S
$$

IAZ004>006-015-016-023>025-035-036-072200-
   NORTH CENTRAL IOWA

CITY           SKY/WX    TMP DP  RH WIND       PRES   REMARKS
ALGONA *       MOSUNNY   36  30  80 W23       29.76S WCI  24
CLARION *      SUNNY     37  28  70 W22G31    29.77S WCI  27
ESTHERVILLE    CLOUDY    34  29  82 W25       29.74S WCI  21
FORT DODGE *   PTSUNNY   37  27  65 W16G29    29.81S WCI  28
MASON CITY     SUNNY     38  28  67 W25G35    29.74S WCI  27
FOREST CITY *  PTSUNNY   36  30  80 W21       29.73S WCI  24
WEBSTER CITY * SUNNY     37  28  70 W24G33    29.78S WCI  26
IOWA FALLS *     N/A     39  30  70 W22       29.79S WCI  29
$$

IAZ007>011-017>019-026>030-037>042-050>054-066-072200-
   NORTHEAST IOWA

CITY           SKY/WX    TMP DP  RH WIND       PRES   REMARKS
CEDAR RAPIDS   PTSUNNY   41  31  67 W23       29.79R
CHARLES CITY * SUNNY     37  32  81 W18G28    29.73S WCI  27
CLINTON *      SUNNY     43  31  62 W24       29.77R
DECORAH *      SUNNY     39  28  65 W12G21    29.69R WCI  32
DUBUQUE        SUNNY     38  27  64 W22G28    29.74R WCI  27
MONTICELLO *   SUNNY     39  30  70 W18       29.76S WCI  30
OELWEIN *      SUNNY     37  30  75 W20G25    29.75R WCI  27
WATERLOO       SUNNY     38  28  67 W17       29.76S WCI  28
$$

IAZ064-065-067-068-078-072200-
   EAST CENTRAL IOWA

CITY           SKY/WX    TMP DP  RH WIND       PRES   REMARKS
DAVENPORT      SUNNY     44  30  57 W22G33    29.79R
IOWA CITY      MOSUNNY   43  29  57 W18G30    29.83S
MT. PLEASANT * SUNNY     50  28  43 W15G25    29.84S
MUSCATINE *    SUNNY     46  28  49 NW20G25   29.83R
QUAD CITIES    SUNNY     47  26  44 W22G28    29.79R
$$

IAZ062-063-075>077-085>089-095>099-072200-
   SOUTHEAST IOWA

CITY           SKY/WX    TMP DP  RH WIND       PRES   REMARKS
BURLINGTON     SUNNY     48  29  47 W14G22    29.83R
FAIRFIELD *    SUNNY     45  28  53 W17G35    29.84S
FORT MADISON * SUNNY     48  28  46 W15G25    29.85R
KEOKUK *       SUNNY     50  25  37 W14G21    29.84S
OSKALOOSA *    CLOUDY    43  32  65 W14G20    29.86R
CENTERVILLE *    N/A    N/A N/A N/A MISG        N/A
OTTUMWA        MOSUNNY   45  26  47 NW21G30   29.85S
WASHINGTON *   SUNNY     45  30  57 W17G28    29.85S
$$

ABBREVIATIONS USED IN REMARKS
   TC - TEMPERATURES IN CELSIUS
  WCI - WIND CHILL INDEX
   HX - HEAT INDEX
  VSB - VISIBILITY
$$




USA.gov is the U.S. government's official web portal to all federal, state and local government web resources and services.